Temp
41 34 30 36 42 40 37 34 34 36 39 38 36 35 41 43 40 40 38 37 36 37 38 38 38 38 37 38 40 40 39 39 39 39 39 39 39 39 39 40 40 40 41 41
35 32 40 42 41 39 36 33 33 37 38 37 33 33 38 41 39 39 37 35 36 36 37 37 37 36 37 37 38 38 39 38 39 38 38 38 38 38 38 38 39 39 39 39
36 37 43 41 37 36 35 35 32 35 36 33 31 33 33 36 36 36 36 36 36 36 36 36 37 35 35 36 37 38 38 38 38 37 36 36 37 36 37 37 37 37 38 38
33 40 39 38 37 39 32 37 37 34 34 27 31 23 33 34 33 34 35 34 34 35 36 36 37 35 35 36 36 37 36 37 37 36 36 36 36 36 36 35 36 36 36 36
32 33 36 34 36 40 33 37 35 33 28 27 26 23 29 31 32 33 33 33 33 34 35 35 35 37 36 35 34 35 35 35 36 35 35 34 33 33 34 34 33 34 34 35
34 37 37 37 36 39 35 33 31 29 28 22 25 28 28 28 31 32 33 32 33 33 34 34 35 36 35 34 33 33 33 34 35 34 33 33 32 32 32 32 31 32 33 34
30 31 33 38 30 33 32 30 21 19 20 19 22 21 35 30 30 31 32 31 30 32 32 32 32 32 33 33 33 32 32 32 33 32 32 32 32 32 31 31 31 31 31 31
25 22 30 33 32 30 30 31 24 19 15 19 24 17 28 27 21 16 21 23 29 30 31 30 30 29 30 32 33 32 31 30 31 30 31 31 30 31 31 31 31 31 30 30
27 27 33 34 34 35 28 26 29 19 15 18 19 23 31 28 24 23 21 28 29 29 28 28 28 27 28 28 30 30 30 30 30 29 29 28 28 28 28 29 30 30 30 30
31 22 30 30 33 31 31 32 24 24 16 15 17 16 25 22 24 25 21 27 27 28 28 27 26 26 26 25 25 26 26 23 23 26 26 28 26 26 25 24 25 26 27 29
31 28 25 28 26 25 26 25 27 27 23 19 17 20 22 25 27 25 24 28 25 25 24 24 24 23 19 18 16 18 18 16 20 22 23 24 25 25 22 22 23 24 25 27
31 27 21 18 19 26 28 28 27 24 18 16 18 23 20 17 11 24 26 28 23 24 22 20 20 15 15 15 15 14 13 10 16 17 19 21 23 22 20 19 21 23 26 27
31 25 18 20 25 27 25 25 25 23 23 16 19 23 16 13 17 21 23 22 24 24 21 15 12 10 10 12 12 12 13 13 13 13 16 19 19 20 19 19 20 21 23 26
35 27 19 21 21 21 17 21 24 26 19 12 15 17 19 21 23 18 20 21 16 17 14 9 9 9 9 10 11 10 14 13 12 10 13 15 17 18 19 20 19 20 22 26
31 24 21 17 20 21 22 25 25 24 27 25 19 19 24 26 23 22 20 14 16 13 12 12 9 9 8 10 11 11 11 13 10 8 10 13 14 14 13 15 15 17 19 25
29 21 23 18 20 22 22 22 26 26 17 16 6 10 25 15 2 12 19 17 12 10 12 12 7 6 9 9 11 14 13 13 7 6 9 10 10 12 13 14 14 16 17 18
26 22 23 17 18 20 19 18 20 22 24 29 23 29 20 12 11 15 16 15 15 15 12 9 8 8 10 12 20 14 14 14 14 13 16 18 17 17 17 19 18 17 16 18
24 22 21 15 14 14 19 4 16 19 22 25 16 12 19 12 9 8 8 17 16 11 8 7 11 15 13 16 15 18 20 20 18 17 19 20 20 20 20 20 19 19 19 19
26 22 13 15 9 17 21 15 16 19 20 21 26 10 7 14 19 19 16 9 15 11 7 9 8 7 12 11 15 18 17 18 18 17 17 18 19 19 19 19 19 20 20 21
26 23 18 3 8 7 13 14 16 14 14 9 5 12 13 17 18 19 19 17 11 6 7 11 11 12 12 13 16 19 18 17 16 17 18 18 18 18 17 18 19 21 21 22
16 16 10 5 3 12 14 19 23 14 17 7 2 5 16 17 17 11 16 9 10 12 11 11 10 10 11 13 16 16 16 14 16 17 17 17 17 16 18 18 19 19 19 20
13 16 9 10 5 9 20 22 19 20 12 14 7 4 9 4 5 8 9 12 13 12 14 15 15 15 15 17 16 15 14 15 15 14 13 13 13 16 18 15 16 16 16 16
15 19 16 18 19 21 19 19 16 12 16 16 16 13 17 15 14 16 15 16 17 17 16 17 15 15 15 14 15 12 12 13 11 8 8 9 12 15 16 14 15 16 16 16
19 20 18 20 23 22 20 19 16 16 22 23 23 21 21 20 18 17 16 16 16 17 15 15 13 11 11 12 13 11 12 10 4 5 8 12 12 13 14 16 17 16 16 17
22 22 21 21 25 21 23 25 26 22 19 22 21 21 22 20 17 16 17 17 16 15 14 12 10 10 9 9 9 6 8 5 5 7 10 10 12 11 13 14 14 17 19 21
22 21 20 21 27 27 28 27 27 24 23 23 22 20 20 21 18 18 16 16 14 13 11 9 7 7 6 4 4 2 -2 -1 -1 6 8 8 9 10 11 10 11 18 21 24
MSLP
1015.11 1015.14 1014.42 1014.52 1014.21 1014.68 1014.93 1015.38 1015.45 1015.45 1015.60 1015.91 1015.75 1015.60 1015.03 1015.13 1015.68 1016.13 1016.91 1017.67 1018.10 1018.38 1018.62 1018.70 1018.54 1018.31 1018.22 1018.34 1018.49 1018.98 1019.60 1020.24 1020.63 1021.11 1021.38 1021.66 1021.65 1021.96 1022.07 1022.06 1022.04 1022.03 1022.03 1022.02
1015.53 1013.70 1013.97 1014.28 1014.61 1014.73 1015.07 1015.36 1015.58 1015.60 1015.80 1016.13 1016.06 1015.47 1015.05 1014.78 1015.07 1015.41 1016.33 1017.32 1017.77 1018.18 1018.49 1018.67 1018.67 1018.66 1018.64 1018.85 1019.04 1019.42 1019.83 1020.23 1020.51 1020.78 1021.12 1021.34 1021.62 1021.89 1022.07 1022.10 1022.13 1022.11 1022.05 1021.97
1014.02 1013.37 1013.35 1013.92 1014.42 1014.94 1014.94 1014.96 1015.51 1015.78 1016.22 1016.61 1016.74 1015.06 1014.53 1014.30 1014.88 1015.45 1016.11 1016.81 1017.42 1017.79 1018.16 1018.44 1018.69 1018.91 1019.08 1019.23 1019.35 1019.59 1019.97 1020.27 1020.51 1020.69 1021.06 1021.48 1021.65 1021.83 1021.92 1022.03 1022.09 1022.10 1022.09 1022.02
1014.59 1013.61 1013.74 1013.91 1013.76 1014.00 1014.55 1014.56 1015.25 1015.98 1016.75 1017.35 1017.29 1015.72 1014.32 1014.20 1014.87 1015.44 1016.08 1016.74 1017.19 1017.61 1017.96 1018.20 1018.47 1018.86 1019.06 1019.29 1019.54 1019.80 1020.05 1020.26 1020.47 1020.65 1020.91 1021.12 1021.40 1021.61 1021.69 1021.89 1022.05 1022.03 1022.07 1022.01
1012.71 1012.84 1013.33 1013.67 1013.31 1013.99 1014.82 1014.90 1015.53 1016.34 1016.99 1017.66 1017.87 1017.92 1014.04 1014.46 1014.80 1015.03 1015.83 1016.54 1017.08 1017.52 1017.79 1018.03 1018.34 1018.59 1018.83 1019.19 1019.56 1019.86 1020.03 1020.22 1020.43 1020.62 1020.78 1021.08 1021.29 1021.53 1021.60 1021.78 1021.96 1021.93 1021.96 1022.01
1013.05 1013.19 1012.99 1013.00 1013.82 1014.08 1015.61 1015.93 1016.69 1017.25 1017.75 1018.16 1016.81 1017.25 1013.52 1014.29 1013.88 1014.49 1015.46 1016.35 1016.91 1017.44 1017.72 1018.04 1018.30 1018.47 1018.91 1019.22 1019.55 1019.84 1020.03 1020.22 1020.38 1020.67 1020.83 1020.93 1021.06 1021.34 1021.45 1021.50 1021.62 1021.68 1021.79 1021.85
1013.11 1013.34 1013.43 1013.61 1014.59 1015.26 1015.14 1015.90 1017.05 1017.95 1018.14 1017.36 1017.19 1017.28 1012.73 1013.69 1014.18 1014.78 1015.35 1016.26 1016.90 1017.38 1017.72 1017.99 1018.34 1018.69 1019.03 1019.27 1019.51 1019.77 1019.92 1020.03 1020.25 1020.45 1020.89 1020.86 1020.96 1021.14 1021.15 1021.30 1021.33 1021.50 1021.60 1021.66
1012.07 1013.04 1012.71 1013.12 1013.19 1013.29 1014.23 1014.25 1014.97 1015.94 1016.93 1017.24 1017.75 1016.54 1013.18 1013.85 1014.65 1015.28 1016.17 1016.46 1017.09 1017.55 1017.81 1018.16 1018.58 1018.89 1019.11 1019.33 1019.48 1019.71 1019.84 1019.98 1020.24 1020.45 1020.57 1020.84 1020.89 1021.00 1021.03 1021.11 1021.15 1021.30 1021.39 1021.43
1010.78 1011.60 1012.02 1012.46 1012.81 1013.09 1014.35 1014.35 1014.58 1015.45 1016.80 1017.17 1016.26 1015.27 1013.70 1014.29 1015.35 1016.12 1016.66 1017.06 1017.26 1017.54 1017.95 1018.40 1018.81 1019.16 1019.41 1019.52 1019.69 1019.81 1019.90 1019.94 1020.13 1020.41 1020.48 1020.75 1020.81 1020.82 1020.89 1020.95 1021.02 1021.09 1021.06 1021.14
1009.73 1011.19 1012.08 1012.94 1013.33 1013.65 1013.34 1013.56 1014.63 1014.82 1015.88 1016.62 1015.58 1015.48 1014.08 1014.69 1015.55 1016.41 1016.97 1017.07 1017.33 1017.66 1018.22 1018.80 1019.23 1019.59 1019.91 1020.05 1020.24 1020.29 1020.39 1020.46 1020.09 1020.45 1020.52 1020.62 1020.60 1020.54 1020.69 1020.78 1020.83 1020.85 1020.80 1020.86
1009.43 1010.37 1012.55 1013.10 1012.94 1012.64 1013.66 1013.54 1013.63 1013.96 1014.79 1014.97 1015.17 1013.62 1012.91 1013.83 1014.74 1015.82 1016.47 1016.83 1017.34 1017.95 1018.65 1019.11 1019.57 1020.06 1020.47 1020.53 1020.57 1020.73 1020.81 1020.84 1020.31 1020.27 1020.49 1020.57 1020.47 1020.43 1020.59 1020.70 1020.66 1020.66 1020.66 1020.69
1009.26 1010.32 1011.89 1012.83 1013.00 1012.82 1012.55 1012.49 1012.65 1013.19 1014.82 1015.08 1015.35 1013.65 1013.46 1014.55 1015.47 1015.72 1016.29 1016.85 1017.56 1018.26 1018.85 1019.43 1020.07 1020.56 1020.69 1020.95 1020.77 1020.92 1020.95 1020.89 1020.40 1020.18 1020.34 1020.29 1020.45 1020.41 1020.38 1020.46 1020.40 1020.40 1020.31 1020.33
1008.75 1009.91 1011.74 1013.05 1013.65 1013.32 1012.87 1012.84 1012.81 1013.15 1013.84 1014.49 1015.38 1014.17 1014.17 1015.10 1015.89 1016.17 1016.51 1017.26 1017.82 1018.51 1019.29 1020.13 1020.83 1021.06 1021.18 1021.27 1021.29 1021.07 1020.84 1020.93 1020.54 1020.16 1020.18 1020.20 1020.38 1020.33 1020.02 1019.99 1019.96 1020.08 1020.08 1019.96
1008.40 1009.26 1010.15 1010.80 1011.24 1011.98 1012.85 1012.51 1012.64 1012.88 1013.95 1014.44 1014.51 1014.29 1014.46 1015.49 1016.12 1016.66 1017.03 1017.59 1018.18 1019.18 1019.86 1020.57 1021.31 1021.47 1021.29 1021.47 1021.51 1021.03 1020.75 1020.84 1020.64 1020.17 1019.98 1020.18 1020.03 1019.99 1019.84 1019.60 1019.70 1019.75 1019.65 1019.62
1008.48 1009.26 1010.41 1011.20 1011.37 1011.61 1012.03 1011.95 1012.32 1012.47 1012.75 1013.74 1014.00 1014.52 1014.40 1014.98 1015.75 1016.46 1017.16 1017.95 1018.66 1019.46 1020.34 1020.70 1021.26 1021.65 1021.38 1021.40 1021.36 1020.78 1020.52 1020.69 1020.55 1020.24 1019.96 1019.72 1019.74 1019.67 1019.76 1019.54 1019.41 1019.52 1019.50 1019.24
1008.90 1009.75 1010.49 1011.94 1012.14 1012.13 1012.41 1012.66 1012.45 1012.69 1013.28 1013.91 1014.50 1015.09 1014.55 1015.62 1016.07 1016.84 1017.19 1018.10 1019.19 1019.58 1020.31 1020.56 1021.11 1021.45 1021.44 1021.27 1021.11 1020.63 1020.26 1020.29 1020.48 1019.96 1019.77 1019.72 1019.63 1019.29 1019.33 1019.17 1019.23 1019.13 1019.00 1018.86
1009.19 1010.00 1010.76 1012.35 1013.07 1012.96 1013.21 1012.32 1012.66 1012.64 1012.66 1012.82 1014.09 1013.57 1014.65 1016.26 1016.47 1016.38 1016.88 1017.98 1018.92 1019.45 1020.07 1020.54 1020.96 1021.07 1021.11 1020.91 1020.62 1020.49 1020.05 1019.95 1019.84 1019.71 1019.45 1019.25 1019.15 1018.94 1018.59 1018.46 1018.50 1018.50 1018.43 1018.34
1009.61 1010.30 1011.56 1013.08 1013.77 1013.26 1012.21 1012.87 1013.00 1012.95 1012.51 1012.86 1013.82 1014.44 1014.78 1015.55 1015.88 1016.14 1016.59 1017.54 1018.74 1019.56 1019.98 1020.43 1020.81 1020.89 1020.91 1020.49 1020.50 1020.11 1019.98 1019.70 1019.58 1019.31 1019.27 1019.08 1018.79 1018.71 1018.34 1018.02 1017.90 1017.85 1017.73 1017.58
1010.12 1010.84 1012.74 1013.50 1013.76 1012.89 1011.97 1012.97 1013.62 1013.37 1012.60 1012.73 1013.86 1015.03 1015.72 1016.09 1016.08 1016.40 1016.74 1017.30 1018.51 1019.27 1019.71 1020.03 1020.66 1020.86 1020.59 1020.38 1020.36 1019.88 1019.83 1019.62 1019.37 1019.26 1018.98 1018.92 1018.65 1018.38 1018.13 1017.90 1017.61 1017.24 1017.03 1016.87
1011.01 1011.23 1012.19 1014.04 1014.08 1013.52 1012.65 1012.81 1013.29 1013.90 1014.12 1013.98 1014.84 1015.31 1015.88 1016.51 1016.60 1016.42 1016.72 1017.54 1018.85 1018.97 1019.41 1019.94 1020.33 1020.31 1020.37 1020.26 1020.09 1019.77 1019.70 1019.66 1019.34 1019.22 1019.02 1018.80 1018.60 1018.37 1017.96 1017.63 1017.38 1017.02 1016.70 1016.30
1012.23 1012.48 1013.24 1014.01 1014.50 1013.30 1013.00 1013.06 1013.89 1014.83 1015.00 1014.44 1015.27 1015.34 1015.98 1016.28 1016.32 1016.40 1016.85 1017.94 1018.37 1018.82 1019.30 1019.71 1020.13 1020.27 1020.27 1020.20 1020.04 1019.81 1019.76 1019.65 1019.48 1019.35 1018.99 1018.80 1018.50 1018.25 1017.86 1017.41 1017.17 1016.88 1016.53 1016.12
1012.52 1012.74 1013.56 1013.98 1014.09 1013.64 1012.93 1013.48 1014.22 1014.05 1014.30 1014.54 1015.21 1015.63 1016.05 1015.95 1016.51 1017.22 1017.41 1017.95 1018.52 1018.88 1019.15 1019.48 1019.89 1020.03 1020.15 1020.21 1020.15 1019.97 1019.86 1019.76 1019.56 1019.37 1019.07 1018.88 1018.58 1018.22 1017.71 1017.42 1016.92 1016.70 1016.38 1015.99
1012.66 1012.18 1012.28 1012.44 1012.16 1011.93 1012.40 1012.68 1012.83 1013.25 1013.83 1014.10 1014.37 1015.07 1015.49 1016.03 1016.46 1017.11 1017.42 1017.88 1018.33 1018.70 1019.08 1019.31 1019.60 1019.89 1020.16 1020.31 1020.28 1020.24 1020.18 1019.90 1019.54 1019.52 1019.18 1018.89 1018.48 1018.14 1017.67 1017.28 1016.82 1016.45 1016.18 1015.83
1011.93 1011.86 1011.94 1011.92 1011.53 1011.26 1011.75 1011.95 1012.35 1013.18 1013.40 1013.28 1013.58 1014.57 1015.36 1015.39 1016.16 1016.88 1017.27 1017.89 1018.32 1018.72 1019.14 1019.32 1019.68 1020.21 1020.58 1020.59 1020.35 1020.44 1020.25 1020.15 1020.05 1019.84 1019.42 1018.96 1018.48 1018.07 1017.55 1017.21 1016.84 1016.49 1016.05 1015.58
1011.95 1012.11 1011.93 1011.58 1011.10 1010.96 1011.13 1011.44 1011.82 1012.51 1013.10 1013.33 1013.90 1014.24 1014.77 1015.41 1016.11 1016.59 1017.25 1017.87 1018.31 1018.84 1019.36 1019.81 1020.22 1020.75 1020.69 1020.51 1020.61 1020.74 1020.68 1020.63 1020.52 1020.08 1019.64 1019.10 1018.66 1018.34 1017.83 1017.37 1016.88 1016.34 1015.84 1015.31
1012.20 1012.08 1011.87 1011.31 1010.82 1010.76 1011.01 1011.35 1011.61 1012.33 1012.88 1013.38 1013.78 1014.49 1014.87 1015.01 1015.76 1016.61 1017.42 1018.05 1018.62 1019.17 1019.74 1020.24 1020.61 1020.70 1020.74 1020.86 1020.92 1021.01 1021.02 1021.04 1020.92 1020.37 1019.79 1019.38 1019.03 1018.72 1018.25 1017.84 1017.13 1016.43 1015.90 1015.20
Wind_Speed
4 6 15 17 20 2 5 5 6 4 3 4 8 7 14 5 4 6 5 4 4 3 1 2 3 4 6 6 10 10 10 8 6 2 2 1 2 1 1 0 2 2 1 1
3 18 8 8 6 6 4 5 5 1 3 2 4 11 13 10 7 7 9 7 6 4 3 2 3 5 5 6 7 7 7 7 4 2 2 2 2 1 0 1 1 1 1 2
15 3 13 14 7 10 9 15 5 5 3 1 4 10 7 3 3 4 4 5 5 7 6 4 4 4 4 5 6 6 6 5 4 4 3 2 1 1 1 2 2 1 2 2
11 14 3 10 16 14 14 9 7 6 4 5 1 10 6 4 6 6 7 7 7 7 4 4 4 4 4 4 4 4 5 5 4 5 3 3 2 2 1 1 1 2 3 2
10 11 18 10 6 11 2 5 5 3 5 2 3 1 5 2 6 11 10 8 7 7 6 5 4 3 3 4 4 4 4 4 4 4 3 3 3 3 2 2 4 4 3 3
1 4 1 7 5 8 11 7 7 5 3 4 8 8 7 7 8 3 6 8 9 7 5 4 2 2 2 3 4 4 5 4 4 4 4 5 5 4 4 4 4 3 2 2
5 4 3 3 7 6 6 9 3 2 4 8 1 2 14 5 6 4 10 11 8 6 5 2 1 0 2 4 4 4 5 5 5 5 5 5 6 5 5 5 3 4 3 3
11 6 14 9 6 10 12 8 8 9 7 2 1 10 10 4 1 1 2 6 6 6 4 2 0 2 2 2 3 4 5 5 5 5 6 5 5 4 4 4 4 4 4 3
9 7 3 12 3 7 6 6 4 8 2 1 5 7 9 5 1 1 4 7 7 6 4 3 2 1 2 2 3 3 4 4 4 6 4 5 5 5 5 5 4 4 3 3
6 4 4 4 4 1 3 9 5 2 7 5 4 6 9 6 9 7 5 8 7 5 5 3 3 2 2 3 4 5 3 5 3 4 4 5 5 5 4 3 5 4 4 4
4 5 5 7 9 10 6 5 3 5 3 6 2 8 6 7 13 15 9 8 8 6 4 2 2 2 3 3 3 4 4 4 4 3 4 5 5 5 4 4 5 4 4 4
4 4 4 5 5 2 2 5 5 5 6 1 1 8 1 4 4 7 9 8 5 5 5 2 1 3 3 4 4 4 4 5 5 4 4 5 5 5 4 5 5 5 4 5
10 5 5 3 0 2 5 4 4 4 3 7 7 7 2 1 3 4 8 6 5 5 4 1 3 3 3 4 4 4 4 6 5 3 4 4 5 6 6 5 5 5 5 6
7 4 5 10 6 5 7 8 9 5 4 6 8 4 4 4 7 6 6 4 4 3 4 0 3 3 3 3 4 4 4 4 5 3 3 5 5 5 5 4 4 5 5 7
6 5 3 3 3 4 3 10 15 15 11 9 4 11 6 11 13 9 6 3 4 3 3 4 3 3 3 4 5 4 2 5 3 4 4 6 5 4 5 5 4 5 6 7
1 3 4 2 2 2 4 5 12 15 3 6 4 7 7 0 1 5 8 7 5 5 6 5 3 3 4 4 5 5 4 4 2 3 5 5 5 4 5 5 6 6 6 6
4 5 3 3 2 2 4 11 10 7 7 14 16 11 8 4 6 6 7 8 8 6 4 4 3 3 4 4 4 5 5 4 2 3 3 3 4 4 4 5 5 6 6 5
5 4 3 3 2 4 4 1 2 5 5 9 1 4 4 2 2 1 2 8 8 5 4 3 2 2 3 2 3 4 4 3 3 3 4 4 4 5 5 4 4 5 4 6
2 4 4 4 3 5 2 3 6 7 8 7 14 5 2 3 3 1 4 3 6 6 4 4 3 3 2 3 4 3 3 3 4 4 4 5 5 5 5 6 5 4 4 5
4 6 5 2 4 6 7 3 4 1 6 3 3 7 9 7 4 5 7 5 5 4 3 4 2 1 1 3 4 3 3 3 5 6 7 6 6 6 6 6 6 4 5 6
3 3 4 2 1 7 5 3 3 4 7 1 3 5 8 5 3 2 6 3 3 4 5 3 2 2 2 3 3 2 3 4 6 7 7 7 7 7 6 6 6 6 6 6
5 4 3 3 3 6 5 4 5 5 0 1 2 3 4 3 4 4 4 6 6 5 4 3 3 3 2 3 3 3 4 6 6 7 7 6 6 5 5 5 5 5 4 5
0 4 4 6 5 3 4 5 3 3 4 4 3 5 6 7 5 7 6 6 5 5 4 3 3 2 3 3 3 3 4 5 6 6 5 5 6 6 6 5 5 5 4 4
2 1 1 2 3 3 4 3 2 5 3 3 2 6 6 6 7 6 6 5 5 4 3 3 3 2 1 2 3 3 4 6 5 5 5 5 5 6 5 5 4 4 4 4
2 4 3 4 5 2 3 6 4 4 2 4 4 5 6 8 6 6 5 5 5 4 3 3 3 2 1 2 3 3 4 4 5 4 4 5 4 5 6 5 4 5 5 6
2 2 2 3 2 1 1 2 3 7 7 7 7 6 4 5 7 5 5 4 4 5 3 3 2 1 2 3 4 3 2 2 2 4 3 4 4 5 5 5 6 8 9 9
Wind_Direction
206 161 204 186 201 108 157 179 184 202 163 196 231 251 262 227 229 224 187 174 165 150 158 12 29 59 84 91 119 129 134 144 140 134 144 167 184 169 174 55 104 92 59 23
130 234 199 194 197 180 169 178 210 265 149 191 318 267 255 250 228 192 181 183 175 165 166 108 71 64 70 104 112 128 137 152 155 141 143 139 148 155 204 193 162 72 30 347
205 168 193 182 172 199 215 221 173 213 162 125 315 270 227 225 164 157 166 166 171 180 179 169 138 121 125 132 144 148 155 154 151 139 125 117 120 144 203 209 223 232 321 306
230 253 173 205 215 193 225 192 160 155 133 238 32 281 273 206 218 203 186 181 178 174 168 158 157 166 174 171 156 152 161 164 163 160 154 176 194 229 216 228 237 278 290 259
211 179 200 198 212 178 244 80 124 106 107 27 192 288 261 110 244 208 193 190 186 180 176 186 197 205 184 158 179 180 174 181 174 179 180 188 214 228 237 238 258 260 263 234
221 340 182 196 73 143 152 88 62 55 100 228 192 173 245 190 212 161 157 180 179 180 167 157 149 168 176 167 175 184 193 210 196 198 198 206 222 232 237 243 252 252 244 226
140 190 151 128 111 131 148 135 134 179 195 229 299 167 251 240 216 203 173 170 170 167 159 146 88 164 224 214 213 214 213 231 210 204 216 213 227 232 241 250 249 251 238 226
186 215 166 178 195 178 175 183 170 193 189 184 64 231 251 215 146 291 112 144 163 165 148 127 322 293 280 267 228 224 227 238 219 210 222 225 232 235 239 245 248 249 239 233
181 226 142 166 137 149 173 199 111 102 53 112 202 273 278 148 65 95 151 167 174 160 141 109 54 37 332 335 307 276 250 238 227 228 225 226 226 227 242 251 250 245 235 230
189 130 199 131 106 37 196 144 129 171 158 208 245 274 248 203 199 193 195 186 174 154 141 122 91 52 6 344 327 322 305 249 236 249 234 235 236 238 244 231 239 233 234 224
140 120 135 140 209 162 155 172 168 109 162 186 214 252 214 214 187 188 192 184 173 168 175 159 37 15 357 351 3 309 288 269 257 241 250 250 249 239 228 239 240 231 234 229
169 104 151 204 273 298 91 148 159 167 188 221 106 276 170 245 243 177 183 169 176 177 168 121 19 335 354 338 349 333 314 287 262 252 248 249 254 237 225 238 240 242 226 231
170 161 118 99 118 218 211 174 116 92 74 191 154 251 347 232 205 218 162 179 160 158 145 54 17 348 321 327 325 318 328 302 289 257 249 246 247 243 232 237 239 243 245 242
157 151 183 196 159 147 188 174 172 161 168 153 219 270 304 231 191 195 198 188 184 179 168 268 314 291 307 310 302 308 329 316 307 277 239 256 241 247 247 239 243 246 238 236
183 157 105 21 122 111 153 183 180 203 202 203 218 201 233 201 199 192 185 169 166 186 209 211 222 277 305 319 314 319 307 311 310 306 273 251 263 258 268 261 241 248 252 236
103 123 120 94 3 135 161 199 204 220 192 258 163 259 225 323 109 173 195 170 188 208 209 214 224 267 283 292 299 309 315 312 293 295 288 286 271 248 246 244 243 236 238 239
127 140 127 145 307 128 280 209 186 203 205 216 232 239 160 229 217 212 193 184 191 189 194 203 214 229 259 275 312 312 306 301 326 330 314 318 291 272 254 248 234 236 236 231
123 93 60 130 212 218 237 353 302 209 231 220 337 245 206 218 199 193 210 168 184 177 194 208 212 252 281 319 314 319 325 340 357 4 348 342 336 317 306 280 253 255 240 233
47 111 105 154 196 284 355 215 171 171 269 222 228 173 225 174 130 1 163 157 160 170 167 165 188 218 301 335 310 322 344 350 8 352 342 327 323 314 312 308 291 271 253 250
61 73 97 97 136 205 247 265 187 172 299 247 188 175 157 173 136 246 164 134 145 151 150 153 175 183 45 327 327 343 1 9 8 350 335 322 316 308 301 298 299 292 278 277
55 33 129 129 197 288 248 209 161 107 241 253 202 196 157 179 189 148 113 83 116 134 142 130 121 136 253 310 326 3 1 12 346 334 330 321 319 311 298 306 304 296 295 291
158 135 172 117 86 278 181 118 180 225 283 199 202 222 131 132 115 136 128 135 135 129 122 116 102 77 55 19 358 7 16 345 339 336 329 323 313 314 316 309 306 300 295 297
315 173 184 182 213 208 210 194 233 179 175 200 158 186 157 141 161 163 151 146 155 156 145 118 99 79 54 19 30 2 345 346 349 339 326 314 318 320 320 309 314 318 309 310
285 170 169 46 300 241 223 238 221 193 234 172 160 152 179 147 150 154 142 153 156 150 137 108 90 74 315 9 22 2 354 352 347 326 322 321 330 329 323 321 314 307 302 303
182 137 186 264 261 343 264 236 225 189 245 142 110 154 165 146 150 147 149 155 151 147 141 130 146 204 259 360 352 347 359 354 338 317 314 328 329 320 327 327 314 320 296 294
192 230 182 247 297 87 318 2 194 175 190 182 153 145 151 140 144 143 151 154 155 156 144 162 188 227 298 322 305 301 301 344 315 321 331 330 327 329 334 333 326 337 342 340